カタログに戻る

STARLINK-4406

運用中通信PO
NORAD 53667·PAYLOAD·🇺🇸 United States

打ち上げ Aug 31, 2022 から Vandenberg Space Force Base

Loading…

次のパス (今後24時間)

TLE

最新Source: CelesTrak SupGP

元期: Sep 15, 2026, 02:44 UTC

1 53667C 22105V   26258.11437500  .00242340  00000+0  25167-2 0  2586
2 53667  97.5976 145.9671 0001690  98.0470 324.7503 15.64515510    17

AllMySatでSTARLINK-4406をリアルタイム追跡

Download on the App Store